Flag for U.S.A. Weather past 2 weeks in Lexington, North Carolina, U.S.A.

Now
78 °F

Sunny.


Feels Like: 81 °F
Forecast: 71 / 86 °F
Wind: No wind

Location: Davidson County Airport

Current Time: Jul 28, 2015 at 10:05:04 AM

Latest Report: Jul 28, 2015 at 9:15 AM


Visibility: 10 mi

Pressure: 30.03 "Hg

Humidity: 83%

Dew point: 73 °F

Location of LexingtonLocation

Historic Weather in Lexington — Graph

°F

Lexington temperature yesterday

Maximum temperature yesterday: 92 °F (at 5:15 PM)
Minimum temperature yesterday: 69 °F (at 5:55 AM)
Average temperature yesterday: 78 °F

Past Weeks' High & Low Weather Summary

 TemperatureHumidityPressure
High96 °F (Jul 20, 3:55 PM)99% (Jul 20, 1:35 AM)30.12 "Hg (Jul 20, 1:35 AM)
Low65 °F (Jul 25, 6:15 AM)36% (Jul 20, 4:35 PM)29.67 "Hg (Jul 14, 4:55 PM)
Average78 °F74%29.93 "Hg
* Reported Jul 13 8:15 AM — Jul 28 8:55 AM, Lexington, Weather by CustomWeather, © 2015

Note: Actual official high and low records may vary slightly from our data, if they occured in-between our weather recording intervals... More about our weather records

Advertising

Lexington weather history for previous 24 hours

 ConditionsComfort  
Time TempWeatherWind HumidityBarometerVisibility
8:55 AM
Tue, Jul 28
77 °FSunny.5 mph85%30.04 "Hg10 mi
8:35 AM76 °FSunny.No wind87%30.03 "Hg10 mi
8:15 AM75 °FSunny.No wind87%30.03 "Hg10 mi
7:55 AM74 °FSunny.No wind91%30.03 "Hg10 mi
7:35 AM72 °FSunny.No wind96%30.03 "Hg7 mi
7:15 AM71 °FFog.No wind98%30.03 "Hg5 mi
6:55 AM70 °FFog.No wind99%30.03 "Hg4 mi
6:35 AM70 °FFog.No wind98%30.03 "Hg5 mi
6:15 AM70 °FFog.No wind98%30.01 "Hg5 mi
5:55 AM70 °FFog.No wind98%30.00 "Hg5 mi
5:15 AM70 °FFog.No wind98%30.00 "Hg5 mi
4:55 AM70 °FFog.No wind98%30.00 "Hg5 mi
4:35 AM70 °FFog.No wind98%30.00 "Hg5 mi
4:15 AM70 °FFog.No wind99%30.01 "Hg5 mi
3:55 AM70 °FFog.No wind98%30.01 "Hg5 mi
3:15 AM71 °FFog.No wind98%30.02 "Hg5 mi
2:55 AM71 °FClear.No wind98%30.02 "Hg7 mi
2:15 AM71 °FPassing clouds.No wind97%30.03 "Hg7 mi
1:55 AM72 °FPassing clouds.No wind96%30.04 "Hg10 mi
1:15 AM72 °FClear.No wind94%30.03 "Hg10 mi
12:55 AM73 °FClear.No wind93%30.03 "Hg10 mi
12:35 AM73 °FClear.No wind93%30.03 "Hg10 mi
12:15 AM72 °FPassing clouds.No wind95%30.03 "Hg10 mi
11:55 PM
Mon, Jul 27
72 °FPassing clouds.No wind93%30.03 "Hg10 mi
11:35 PM72 °FClear.No wind92%30.02 "Hg10 mi
11:15 PM73 °FPassing clouds.3 mph91%30.02 "Hg10 mi
10:55 PM72 °FPassing clouds.No wind90%30.02 "Hg10 mi
10:35 PM72 °FClear.3 mph92%30.02 "Hg10 mi
10:15 PM73 °FPassing clouds.No wind89%30.01 "Hg10 mi
9:55 PM73 °FPassing clouds.No wind90%30.02 "Hg10 mi
9:35 PM73 °FPartly cloudy.10 mph91%30.02 "Hg10 mi
9:15 PM73 °FPartly sunny.5 mph94%30.01 "Hg7 mi
8:55 PM73 °FLight rain. Scattered clouds.5 mph94%30.00 "Hg7 mi
8:35 PM74 °FLight rain. Scattered clouds.6 mph91%30.00 "Hg10 mi
8:15 PM75 °FRain. Scattered clouds.No wind85%29.99 "Hg10 mi
7:55 PM76 °FLight rain. Overcast.No wind81%29.99 "Hg10 mi
7:35 PM79 °FCloudy.6 mph74%29.99 "Hg10 mi
7:15 PM82 °FBroken clouds.6 mph68%29.97 "Hg10 mi
6:55 PM86 °FScattered clouds.3 mph59%29.96 "Hg10 mi
6:15 PM89 °FSunny.5 mph53%29.96 "Hg10 mi
5:55 PM90 °FScattered clouds.5 mph53%29.96 "Hg10 mi
5:15 PM92 °FSunny.No wind47%29.95 "Hg10 mi
4:55 PM89 °FSunny.No wind50%29.96 "Hg10 mi
4:35 PM89 °FSunny.No wind51%29.96 "Hg10 mi
4:15 PM89 °FSunny.5 mph50%29.96 "Hg10 mi
3:55 PM90 °FScattered clouds.5 mph48%29.98 "Hg10 mi
3:35 PM90 °FSunny.6 mph48%29.98 "Hg10 mi
3:15 PM89 °FSunny.5 mph50%29.99 "Hg10 mi
2:55 PM88 °FSunny.3 mph51%30.00 "Hg10 mi
2:35 PM90 °FSunny.3 mph49%30.00 "Hg10 mi
2:15 PM88 °FSunny.6 mph52%30.01 "Hg10 mi
1:55 PM88 °FSunny.3 mph53%30.01 "Hg10 mi
1:35 PM88 °FSunny.3 mph53%30.02 "Hg10 mi
1:15 PM88 °FSunny.5 mph53%30.03 "Hg10 mi
12:55 PM87 °FSunny.3 mph56%30.03 "Hg10 mi
12:35 PM86 °FSunny.5 mph58%30.03 "Hg10 mi
12:15 PM86 °FSunny.3 mph55%30.03 "Hg10 mi
11:55 AM85 °FSunny.5 mph58%30.04 "Hg10 mi
11:35 AM85 °FSunny.3 mph60%30.04 "Hg10 mi
11:15 AM83 °FSunny.No wind64%30.04 "Hg10 mi
10:55 AM82 °FSunny.5 mph65%30.04 "Hg10 mi
10:35 AM81 °FScattered clouds.3 mph69%30.04 "Hg10 mi
10:15 AM78 °FScattered clouds.No wind74%30.04 "Hg10 mi
Weather by CustomWeather, © 2015

See weather overviewHow to use our weather pages